Tracking 19575 objects as of 20-Feb-2019
HD Live streaming from Space Station
objects crossing your sky now

SL-16 DEB

Track SL-16 DEB now!
10-day predictions


NORAD ID: 39900
Int'l Code: 1993-016CA
Perigee: 704.4 km
Apogee: 820.2 km
Inclination: 70.9 °
Period: 99.9 minutes
Semi major axis: 7133 km
RCS: 0.0139 m2 (small)
Launch date: March 26, 1993
Source: Commonwealth of Independent States (former USSR) (CIS)
Launch site: TYURATAM MISSILE AND SPACE COMPLEX (TTMTR)

Note: This is SATELLITE DEBRIS
aabbcc
Your satellite tracking list
Your tracking list is empty




NASA's NSSDC Master Catalog

Two Line Element Set (TLE):
1 39900U 93016CA  19050.70844352  .00001971  00000-0  60482-3 0  9999
2 39900  70.9371 188.5132 0081117  63.3064 297.6347 14.41008568824894
Source of the keplerian elements: AFSPC